GW6539 Weather Reports


Display with metric or nautical units.
time (UTC)temp
F
wind
direction
speed
MPH
gust
MPH
rain 1hr
in
rain 24hr
in
rain mn
in
humidity
%
barometer
mb
20260506013805 86 91 11.0 15.0 0.00 0.02 0.02 72 1011.8
20260506013303 87 100 11.0 15.0 0.00 0.02 0.02 73 1011.8
20260506012759 86 88 12.0 15.0 0.00 0.02 0.02 73 1011.8
20260506012256 87 80 13.0 15.0 0.00 0.02 0.02 71 1011.8
20260506011753 86 77 12.0 15.0 0.00 0.02 0.02 72 1012.2
20260506011249 86 86 12.0 16.0 0.00 0.02 0.02 74 1012.2
20260506010748 86 71 12.0 15.0 0.00 0.02 0.02 74 1012.2
20260506010245 87 79 11.0 15.0 0.00 0.02 0.02 73 1011.8
20260506005742 86 89 8.0 11.0 0.00 0.02 0.02 74 1012.5
20260506005239 87 96 11.0 16.0 0.00 0.02 0.02 71 1012.2
20260506004734 87 68 10.0 13.0 0.00 0.02 0.02 73 1012.5
20260506004232 85 79 13.0 16.0 0.00 0.02 0.02 76 1012.5
20260506003728 85 93 11.0 15.0 0.00 0.02 0.02 77 1012.5
20260506003225 86 80 14.0 16.0 0.00 0.02 0.02 75 1012.5
20260506002721 86 73 12.0 15.0 0.00 0.02 0.02 75 1012.5
20260506002217 85 59 13.0 17.0 0.00 0.02 0.02 76 1012.5
20260506001713 85 68 13.0 16.0 0.00 0.02 0.02 76 1012.5
20260506001211 85 74 14.0 16.0 0.00 0.02 0.02 75 1012.5
20260506000707 85 72 13.0 16.0 0.00 0.02 0.02 76 1012.8
20260506000205 85 88 7.0 11.0 0.00 0.02 0.02 78 1012.5
20260505235703 84 66 10.0 12.0 0.00 0.02 0.02 79 1012.8
20260505235200 85 102 11.0 15.0 0.00 0.02 0.02 78 1012.8
20260505234657 86 89 10.0 13.0 0.00 0.02 0.02 76 1012.8
20260505234154 85 100 8.0 10.0 0.00 0.02 0.02 77 1012.8
20260505233650 85 101 11.0 17.0 0.00 0.02 0.02 77 1012.8
20260505233148 85 109 9.0 11.0 0.00 0.02 0.02 77 1012.8
20260505232646 85 73 12.0 16.0 0.00 0.02 0.02 76 1012.8
20260505232143 85 63 13.0 17.0 0.00 0.02 0.02 78 1012.8
20260505231639 84 79 12.0 14.0 0.00 0.02 0.02 79 1012.8
20260505231139 84 78 9.0 11.0 0.00 0.02 0.02 78 1012.8
20260505230636 84 55 10.0 14.0 0.00 0.02 0.02 79 1012.8
20260505230132 84 88 8.0 11.0 0.00 0.02 0.02 80 1012.8
20260505225628 84 74 10.0 15.0 0.00 0.02 0.02 79 1012.5
20260505225125 84 91 10.0 13.0 0.00 0.02 0.02 79 1012.5
20260505224622 85 71 13.0 16.0 0.00 0.02 0.02 78 1012.5
20260505224119 85 94 11.0 14.0 0.00 0.02 0.02 77 1012.5
20260505223616 85 98 12.0 17.0 0.00 0.02 0.02 77 1012.5
20260505223112 85 73 11.0 13.0 0.00 0.02 0.02 77 1012.2
20260505222609 85 89 9.0 13.0 0.00 0.02 0.02 77 1012.2
20260505222105 84 91 12.0 15.0 0.00 0.02 0.02 77 1012.2
20260505221602 84 90 10.0 13.0 0.00 0.02 0.02 78 1012.2
20260505221058 84 80 8.0 11.0 0.00 0.02 0.02 79 1012.2
20260505220556 83 100 9.0 13.0 0.00 0.02 0.02 82 1012.2
20260505220054 82 90 8.0 11.0 0.00 0.02 0.02 83 1012.2
20260505215552 82 87 7.0 9.0 0.00 0.02 0.02 83 1012.2
20260505215049 82 83 8.0 10.0 0.00 0.02 0.02 83 1012.2
20260505214547 82 77 8.0 10.0 0.00 0.02 0.02 83 1012.2
20260505214044 83 97 7.0 11.0 0.00 0.02 0.02 83 1011.8
20260505213542 82 80 6.0 9.0 0.00 0.02 0.02 84 1012.2
20260505213037 82 76 6.0 8.0 0.00 0.02 0.02 85 1011.8
20260505212534 81 78 7.0 9.0 0.00 0.02 0.02 86 1011.8
20260505212032 81 70 6.0 7.0 0.00 0.02 0.02 86 1011.8
20260505211529 81 68 6.0 8.0 0.00 0.02 0.02 86 1011.8
20260505211025 81 78 7.0 9.0 0.00 0.02 0.02 86 1011.8
20260505210522 81 62 4.0 5.0 0.00 0.02 0.02 86 1011.8
20260505210019 81 63 5.0 6.0 0.00 0.02 0.02 86 1011.8
20260505205517 81 91 4.0 6.0 0.00 0.02 0.02 87 1011.8
20260505205014 80 60 5.0 7.0 0.00 0.02 0.02 87 1011.5
20260505204512 80 83 4.0 5.0 0.00 0.02 0.02 87 1011.8
20260505204009 80 65 5.0 7.0 0.00 0.02 0.02 87 1011.8
20260505203505 80 70 5.0 6.0 0.00 0.02 0.02 86 1011.5
20260505203001 80 83 5.0 6.0 0.00 0.02 0.02 87 1011.5
20260505202458 80 78 5.0 6.0 0.00 0.02 0.02 87 1011.5
20260505201954 80 87 5.0 6.0 0.00 0.02 0.02 87 1011.5
20260505201451 80 108 3.0 4.0 0.00 0.02 0.02 87 1011.5
20260505200949 80 93 3.0 3.0 0.00 0.02 0.02 87 1011.5
20260505200447 80 80 3.0 5.0 0.00 0.02 0.02 87 1011.5
20260505195942 80 103 1.0 2.0 0.00 0.02 0.02 87 1011.1
20260505195439 80 69 3.0 5.0 0.00 0.02 0.02 86 1011.1
20260505194937 80 76 3.0 4.0 0.00 0.02 0.02 86 1011.1
20260505194434 80 80 2.0 3.0 0.00 0.02 0.02 86 1011.1
20260505193934 80 58 4.0 5.0 0.00 0.02 0.02 86 1011.1
20260505193432 80 93 4.0 6.0 0.00 0.02 0.02 86 1011.1
20260505192929 80 72 4.0 4.0 0.00 0.02 0.02 86 1011.1
20260505192428 80 79 4.0 5.0 0.00 0.02 0.02 85 1010.8
20260505191925 80 82 4.0 5.0 0.00 0.02 0.02 85 1011.1
20260505191423 81 72 5.0 6.0 0.00 0.02 0.02 85 1010.8
20260505190920 81 69 6.0 7.0 0.00 0.02 0.02 85 1010.8
20260505190415 81 71 6.0 7.0 0.00 0.02 0.02 84 1010.8
20260505185910 81 78 7.0 9.0 0.00 0.02 0.02 85 1010.8
20260505185408 81 70 6.0 8.0 0.00 0.02 0.02 84 1010.8
20260505184904 81 76 6.0 9.0 0.00 0.02 0.02 84 1010.8
20260505184401 81 73 7.0 9.0 0.00 0.02 0.02 83 1010.5
20260505183858 81 76 9.0 13.0 0.00 0.02 0.02 84 1010.8
20260505183355 81 79 7.0 10.0 0.00 0.02 0.02 84 1010.8
20260505182851 81 77 6.0 7.0 0.00 0.02 0.02 85 1010.8
20260505182348 81 83 5.0 7.0 0.00 0.02 0.02 85 1010.8
20260505181845 81 81 5.0 6.0 0.00 0.02 0.02 85 1010.8
20260505181342 80 96 5.0 7.0 0.00 0.02 0.02 86 1010.8
20260505180839 80 78 4.0 5.0 0.00 0.02 0.02 86 1010.8
20260505180335 80 56 3.0 4.0 0.00 0.02 0.02 86 1010.8
20260505175832 80 65 4.0 5.0 0.00 0.02 0.02 86 1010.8
20260505175328 80 63 5.0 6.0 0.00 0.02 0.02 85 1010.8
20260505174825 80 64 6.0 7.0 0.00 0.02 0.02 85 1010.8
20260505174322 80 74 7.0 9.0 0.00 0.02 0.02 85 1010.8
20260505173818 80 70 6.0 7.0 0.00 0.02 0.02 85 1011.1
20260505173315 80 75 4.0 5.0 0.00 0.02 0.02 85 1011.1
20260505172812 80 79 5.0 7.0 0.00 0.02 0.02 86 1011.1
20260505172310 80 81 7.0 9.0 0.00 0.02 0.02 86 1011.1
20260505171804 80 78 6.0 7.0 0.00 0.02 0.02 87 1011.1
20260505171301 80 78 6.0 7.0 0.00 0.02 0.02 87 1011.1
20260505170757 81 85 5.0 7.0 0.00 0.02 0.02 87 1011.1
20260505170255 81 75 6.0 9.0 0.00 0.02 0.02 87 1011.1
20260505165749 81 72 6.0 7.0 0.00 0.02 0.02 87 1011.1
20260505165246 81 77 7.0 9.0 0.00 0.02 0.02 87 1011.5
20260505164741 81 76 7.0 9.0 0.00 0.02 0.02 87 1011.5
20260505164239 81 75 4.0 6.0 0.00 0.02 0.02 87 1011.5
20260505163737 81 69 5.0 7.0 0.00 0.02 0.02 86 1011.5
20260505163235 81 76 6.0 9.0 0.00 0.02 0.02 86 1011.5
20260505162732 81 52 5.0 6.0 0.00 0.00 0.00 85 1011.5
20260505162229 81 75 6.0 7.0 0.00 0.00 0.00 85 1011.5
20260505161726 81 76 5.0 6.0 0.00 0.00 0.00 85 1011.5
20260505161224 81 72 5.0 6.0 0.00 0.00 0.00 84 1011.5
20260505160721 82 63 6.0 7.0 0.00 0.00 0.00 84 1011.8
20260505160218 82 74 4.0 6.0 0.00 0.00 0.00 84 1011.8
20260505153157 82 85 7.0 9.0 0.00 0.00 0.00 83 1011.8
20260505152654 82 98 5.0 7.0 0.00 0.00 0.00 82 1011.8
20260505152150 82 95 6.0 8.0 0.00 0.00 0.00 82 1011.8
20260505151645 82 87 5.0 7.0 0.00 0.00 0.00 82 1011.8
20260505151143 82 88 6.0 8.0 0.00 0.00 0.00 82 1011.8
20260505150639 82 92 6.0 8.0 0.00 0.00 0.00 82 1011.8
20260505150136 82 78 5.0 7.0 0.00 0.00 0.00 81 1012.2
20260505140605 82 87 10.0 15.0 0.00 0.00 0.00 84 1012.5
20260505125018 82 81 8.0 11.0 0.00 0.03 0.03 84 1012.5
20260505124515 82 101 10.0 13.0 0.00 0.03 0.03 84 1012.5
20260505124011 82 84 9.0 13.0 0.00 0.03 0.03 85 1012.5
20260505123508 82 98 8.0 10.0 0.00 0.03 0.03 85 1012.5
20260505123004 82 99 5.0 7.0 0.00 0.03 0.03 85 1012.5
20260505122501 82 93 8.0 10.0 0.00 0.03 0.03 86 1012.5
20260505121958 82 88 8.0 11.0 0.00 0.03 0.03 87 1012.5
20260505121454 81 79 7.0 8.0 0.00 0.03 0.03 87 1012.5
20260505120950 81 81 5.0 9.0 0.00 0.03 0.03 87 1012.5
20260505120447 81 71 6.0 7.0 0.00 0.03 0.03 87 1012.5
20260505115946 81 79 7.0 8.0 0.00 0.03 0.03 86 1012.2
20260505115443 81 61 6.0 10.0 0.00 0.03 0.03 86 1012.5
20260505114941 82 72 7.0 9.0 0.00 0.03 0.03 85 1012.5
20260505114437 82 83 7.0 9.0 0.00 0.03 0.03 85 1012.2
20260505113934 82 88 6.0 8.0 0.00 0.03 0.03 85 1012.2
20260505113430 82 99 5.0 6.0 0.00 0.03 0.03 85 1012.2
20260505112926 82 98 6.0 7.0 0.00 0.03 0.03 85 1012.2
20260505112424 82 109 5.0 7.0 0.00 0.03 0.03 84 1012.2
20260505111920 82 93 8.0 11.0 0.00 0.03 0.03 84 1012.2
20260505111415 82 91 8.0 11.0 0.00 0.03 0.03 84 1012.2
20260505110912 82 90 6.0 8.0 0.00 0.03 0.03 85 1012.2
20260505110409 82 83 7.0 10.0 0.00 0.03 0.03 85 1012.2
20260505101839 81 105 6.0 7.0 0.00 0.03 0.03 84 1011.5
20260505101334 81 94 8.0 10.0 0.00 0.03 0.03 85 1011.5
20260505100830 81 94 5.0 8.0 0.00 0.03 0.03 86 1011.5
20260505100327 81 97 5.0 6.0 0.00 0.03 0.03 85 1011.5
20260505095822 81 99 4.0 6.0 0.00 0.03 0.03 85 1011.1
20260505095320 82 92 5.0 6.0 0.00 0.03 0.03 85 1011.5
20260505094816 82 116 5.0 6.0 0.00 0.03 0.03 84 1011.1
20260505094313 82 99 5.0 6.0 0.00 0.03 0.03 84 1011.1
20260505093808 82 91 5.0 7.0 0.00 0.03 0.03 84 1011.1
20260505093307 82 88 6.0 8.0 0.00 0.03 0.03 83 1011.1
20260505092803 82 99 6.0 7.0 0.00 0.03 0.03 83 1011.1
20260505092304 82 81 7.0 9.0 0.00 0.03 0.03 83 1011.1
20260505091758 82 75 7.0 9.0 0.00 0.03 0.03 82 1011.1
20260505091256 82 98 6.0 8.0 0.00 0.03 0.03 82 1011.1
20260505090754 82 102 6.0 7.0 0.00 0.03 0.03 82 1010.8
20260505090252 82 91 8.0 9.0 0.00 0.03 0.03 82 1010.8
20260505085749 83 97 6.0 9.0 0.00 0.03 0.03 81 1010.5
20260505085247 83 90 8.0 10.0 0.00 0.03 0.03 78 1010.5
20260505084744 83 82 8.0 10.0 0.00 0.03 0.03 79 1010.5
20260505084243 83 95 6.0 7.0 0.00 0.03 0.03 79 1010.5
20260505083739 83 101 6.0 8.0 0.00 0.03 0.03 81 1010.5
20260505083236 82 90 7.0 9.0 0.00 0.03 0.03 81 1010.5
20260505082732 83 91 7.0 8.0 0.00 0.03 0.03 82 1010.1
20260505082230 83 65 12.0 16.0 0.00 0.03 0.03 81 1010.1
20260505081725 83 101 10.0 13.0 0.00 0.03 0.03 81 1010.1
20260505081223 84 95 12.0 16.0 0.00 0.03 0.03 80 1010.1
20260505080720 84 109 10.0 14.0 0.00 0.03 0.03 78 1010.1
20260505080215 84 108 9.0 13.0 0.00 0.03 0.03 78 1010.1
20260505075711 84 102 8.0 10.0 0.00 0.03 0.03 78 1010.1
20260505075209 84 110 6.0 11.0 0.00 0.03 0.03 78 1009.8
20260505074706 84 99 7.0 9.0 0.00 0.03 0.03 77 1009.8
20260505074202 85 90 9.0 13.0 0.00 0.03 0.03 77 1009.8
20260505073700 85 86 7.0 10.0 0.00 0.03 0.03 76 1009.8
20260505073158 85 102 3.0 7.0 0.00 0.03 0.03 77 1009.8
20260505072653 85 95 7.0 9.0 0.00 0.03 0.03 77 1009.8
20260505072150 85 108 8.0 11.0 0.00 0.03 0.03 77 1010.1
20260505071646 85 102 5.0 8.0 0.00 0.03 0.03 77 1009.8
20260505071144 85 114 6.0 8.0 0.00 0.03 0.03 76 1009.8
20260505070641 86 93 8.0 11.0 0.00 0.03 0.03 74 1009.8
20260505070137 86 134 5.0 6.0 0.00 0.03 0.03 73 1009.8
20260505065633 86 119 8.0 13.0 0.00 0.03 0.03 72 1009.8
20260505065130 86 100 10.0 13.0 0.00 0.03 0.03 73 1009.8
20260505064627 86 90 10.0 13.0 0.00 0.03 0.03 73 1009.8
20260505064125 86 100 7.0 11.0 0.00 0.03 0.03 72 1009.8
20260505063622 86 104 9.0 12.0 0.00 0.03 0.03 72 1009.8
20260505063118 86 105 7.0 12.0 0.00 0.03 0.03 73 1009.8
20260505062614 86 93 7.0 9.0 0.00 0.03 0.03 74 1009.8
20260505062112 85 116 5.0 9.0 0.00 0.03 0.03 75 1009.8
20260505061609 86 108 9.0 12.0 0.00 0.03 0.03 75 1009.8
20260505061107 86 100 7.0 10.0 0.00 0.03 0.03 75 1009.8
20260505060604 86 121 9.0 12.0 0.00 0.03 0.03 75 1009.8
20260505055556 85 129 6.0 10.0 0.00 0.03 0.03 75 1009.8
20260505055053 86 87 9.0 12.0 0.00 0.03 0.03 75 1009.8
20260505054550 86 121 5.0 11.0 0.00 0.03 0.03 74 1009.8
20260505054049 86 121 8.0 11.0 0.00 0.03 0.03 73 1009.8
20260505053545 86 109 8.0 10.0 0.00 0.03 0.03 73 1009.8
20260505053042 86 76 6.0 12.0 0.00 0.03 0.03 73 1009.8
20260505052539 86 130 6.0 10.0 0.00 0.03 0.03 73 1010.1
20260505052037 86 122 9.0 13.0 0.00 0.03 0.03 73 1010.1
20260505051533 86 150 4.0 7.0 0.00 0.03 0.03 73 1010.1
20260505051031 86 100 6.0 8.0 0.00 0.03 0.03 73 1010.1
20260505050529 86 125 9.0 13.0 0.00 0.03 0.03 72 1010.5
20260505041457 87 137 6.0 10.0 0.00 0.03 0.03 72 1010.5
20260505040954 87 127 9.0 13.0 0.00 0.03 0.03 72 1010.5
20260505040451 88 153 4.0 13.0 0.00 0.03 0.03 71 1010.5
20260505035948 87 100 8.0 12.0 0.00 0.03 0.03 72 1010.5
20260505035444 87 109 10.0 13.0 0.00 0.03 0.03 72 1010.5
20260505034941 87 109 10.0 15.0 0.00 0.03 0.03 72 1010.5
20260505034438 87 118 8.0 13.0 0.00 0.03 0.03 73 1010.5
20260505033935 87 104 11.0 17.0 0.00 0.03 0.03 73 1010.5
20260505033432 86 112 11.0 17.0 0.00 0.03 0.03 73 1010.8
20260505032930 87 113 5.0 8.0 0.00 0.03 0.03 74 1010.8
20260505032427 87 119 9.0 13.0 0.00 0.03 0.03 74 1010.8
20260505031923 87 96 6.0 9.0 0.00 0.03 0.03 74 1010.8
20260505031420 87 127 6.0 8.0 0.00 0.03 0.03 75 1011.1
20260505030917 86 98 9.0 12.0 0.00 0.03 0.03 74 1011.1
20260505030413 87 105 9.0 17.0 0.00 0.03 0.03 73 1011.1
20260505025908 86 113 10.0 14.0 0.00 0.03 0.03 75 1011.1
20260505025406 86 94 7.0 9.0 0.00 0.03 0.03 75 1011.1
20260505024905 86 114 10.0 13.0 0.00 0.03 0.03 74 1011.1
20260505024402 86 115 12.0 17.0 0.00 0.03 0.03 74 1011.1
20260505023859 86 91 11.0 14.0 0.00 0.03 0.03 74 1011.1
20260505023356 87 82 12.0 16.0 0.00 0.03 0.03 73 1011.1
20260505022853 87 110 10.0 18.0 0.00 0.03 0.03 73 1011.1
20260505022350 87 95 11.0 16.0 0.00 0.03 0.03 73 1011.1
20260505021848 87 93 13.0 17.0 0.00 0.03 0.03 73 1011.5
20260505021344 87 119 10.0 15.0 0.00 0.03 0.03 73 1011.5
20260505020840 87 111 9.0 13.0 0.00 0.03 0.03 73 1011.5
20260505020335 87 99 11.0 15.0 0.00 0.03 0.03 72 1011.5
20260505015832 87 103 8.0 11.0 0.00 0.03 0.03 73 1011.8
20260505015329 86 79 9.0 13.0 0.00 0.03 0.03 73 1011.8
20260505014827 86 96 12.0 16.0 0.00 0.03 0.03 72 1011.5
20260505014324 87 89 9.0 14.0 0.00 0.03 0.03 72 1011.8